Theta_e
292 288 285 287 288 285 286 283 282 284 288 288 287 287 290 291 290 291 291 292 292 293 295 295 295 295 304 310 316 322 324 327 328 330 328 328 327 328 326 322 320 320 317 315
289 285 289 290 288 287 285 283 282 285 288 288 285 287 289 290 291 292 293 292 292 291 291 293 294 293 295 305 312 318 323 326 327 329 330 330 329 329 328 326 322 322 319 316
285 287 290 289 286 285 282 283 282 283 284 285 283 283 284 287 288 290 292 292 292 292 292 293 294 293 292 294 305 313 319 324 327 329 329 324 326 324 326 326 324 322 321 317
286 288 288 286 284 286 282 287 286 284 283 279 282 276 281 284 287 288 291 290 289 289 290 290 291 291 292 292 294 305 313 319 324 327 327 327 326 324 326 327 326 322 321 320
285 287 286 285 286 287 284 287 286 283 281 280 279 278 281 282 285 288 288 289 291 294 293 294 295 295 294 294 292 296 306 313 319 324 327 327 325 327 327 326 323 322 321 321
285 289 289 288 287 288 289 286 284 282 280 276 280 280 279 281 285 285 288 288 291 291 293 293 294 295 295 296 300 301 304 309 315 320 324 326 325 324 318 322 322 320 320 320
285 286 289 290 287 288 284 283 277 275 274 276 278 278 280 285 286 285 286 290 290 290 292 292 292 293 294 295 296 303 306 307 311 315 315 318 320 315 316 317 320 315 313 310
280 279 287 289 287 285 283 283 278 271 272 275 280 277 283 286 288 289 291 290 291 291 292 292 292 293 293 294 295 296 301 304 306 309 310 310 311 309 308 313 315 316 316 316
280 280 287 288 289 290 284 281 284 277 267 272 277 281 286 287 290 290 291 291 290 289 291 291 292 292 293 294 295 296 297 297 300 303 304 305 307 306 307 306 308 310 310 309
286 280 285 287 289 289 286 288 280 278 269 269 276 277 280 284 288 289 289 289 290 290 291 291 291 292 293 293 294 295 296 296 297 298 300 301 301 301 302 300 300 300 300 300
286 284 282 286 285 284 284 282 282 283 279 274 271 277 283 286 289 289 289 290 289 289 289 289 290 291 291 292 292 293 294 295 296 297 297 297 297 298 298 297 297 297 296 296
288 284 280 283 286 287 285 285 284 281 276 276 278 278 287 289 291 291 290 291 290 290 290 290 290 291 292 291 292 292 293 293 293 294 294 295 295 295 294 295 295 294 294 293
289 282 272 279 284 284 283 283 285 283 282 278 275 279 288 289 290 290 290 290 289 290 289 290 291 291 291 291 291 291 291 291 291 292 293 293 293 293 293 293 293 292 292 292
294 285 284 280 281 284 283 284 285 286 279 282 281 282 286 288 289 289 288 288 288 289 289 289 290 290 290 290 289 289 289 289 289 290 290 290 290 291 292 291 291 291 290 290
291 283 284 284 284 285 284 285 285 285 287 282 285 284 289 290 290 290 288 288 289 289 289 289 288 289 289 289 289 289 288 288 287 288 288 287 287 288 288 287 287 287 287 287
291 279 282 280 286 285 281 284 286 287 288 287 283 282 287 289 289 287 288 288 288 288 288 289 288 288 288 288 288 288 287 287 286 287 286 286 285 285 285 285 285 286 286 286
289 285 281 280 284 285 282 284 285 287 288 287 283 288 288 286 288 287 286 287 287 288 288 287 287 287 287 286 287 286 285 285 285 285 285 284 284 284 284 284 284 284 284 284
286 287 285 282 284 277 285 285 290 288 287 288 286 287 289 288 286 287 287 286 286 286 285 285 285 285 285 284 284 284 283 283 284 284 284 284 283 283 283 282 282 282 283 283
291 289 283 280 281 282 282 282 285 286 287 290 289 285 285 284 284 283 285 286 286 286 285 284 284 284 283 282 282 282 282 282 282 282 283 283 282 281 282 281 282 282 280 282
289 288 285 278 278 276 279 280 286 290 284 287 287 285 283 285 282 281 285 284 284 284 283 282 282 282 281 281 281 281 280 280 280 281 281 281 281 277 278 279 280 278 276 280
283 284 282 279 277 276 280 284 286 280 280 280 288 287 285 285 285 285 283 282 282 282 282 280 279 279 279 280 279 278 278 278 278 279 279 279 279 278 278 277 275 277 277 278
282 280 281 279 277 275 280 283 283 282 280 281 284 287 282 281 282 282 281 280 280 279 280 278 276 276 277 278 276 275 275 276 275 276 275 275 275 277 279 277 278 277 273 275
280 284 281 282 281 282 281 281 284 284 281 280 281 283 282 280 281 282 280 279 279 277 278 275 273 274 275 274 273 271 272 273 273 271 271 272 274 275 277 276 277 278 272 279
278 281 280 280 281 280 280 281 282 282 281 282 282 281 281 280 280 279 278 278 277 275 274 272 271 271 271 270 271 269 270 270 267 267 268 270 271 273 276 278 278 276 277 277
280 280 277 276 278 278 278 279 280 280 281 280 279 279 279 279 278 277 275 274 273 273 271 270 270 269 268 268 266 264 267 265 265 265 266 267 270 271 273 278 280 281 281 280
279 278 278 277 280 281 280 280 280 279 278 277 276 275 275 277 275 273 272 271 270 268 267 267 266 265 264 263 262 262 260 259 262 262 264 265 266 268 270 272 275 282 285 285
Wind_Speed
2 4 8 7 8 4 6 4 4 4 1 2 6 8 12 9 7 9 10 12 11 12 10 8 8 9 9 9 12 14 14 15 12 10 11 9 10 8 7 8 10 11 11 12
4 6 6 6 7 5 5 4 3 3 2 3 4 11 11 9 9 9 9 10 12 8 8 7 9 7 10 13 14 14 16 15 14 11 11 10 9 8 8 8 11 11 13 14
8 3 8 7 5 7 2 6 4 4 3 3 5 9 7 6 5 6 10 10 10 10 12 9 8 7 7 10 13 14 15 16 15 16 9 3 3 2 7 8 8 11 14 14
4 2 7 5 4 7 6 7 5 3 4 4 3 8 7 5 10 7 12 8 9 10 7 7 7 6 6 7 7 9 10 13 13 14 12 15 12 12 9 9 7 10 14 14
8 9 6 5 7 8 6 6 5 3 4 2 2 1 9 2 6 11 7 7 7 7 7 8 8 7 5 6 1 6 7 7 8 12 14 13 16 12 6 6 9 10 11 14
5 1 5 8 3 4 10 8 8 5 3 3 8 8 7 5 8 3 2 7 7 7 7 7 7 6 7 7 7 4 4 3 5 8 10 14 17 11 6 7 8 6 6 8
1 2 2 5 8 4 3 8 2 3 2 7 1 0 8 8 7 3 5 9 9 9 8 8 9 9 9 9 8 6 6 4 5 6 7 8 10 8 8 6 6 6 5 4
9 5 10 4 8 10 6 8 8 10 6 3 2 9 8 4 2 4 5 4 6 8 7 7 7 7 7 8 8 8 7 5 2 3 4 4 5 4 4 5 4 5 6 6
7 6 1 2 5 11 6 7 6 9 3 4 6 7 11 5 6 5 6 5 6 3 7 7 7 7 8 7 7 7 7 6 7 4 3 2 2 4 4 4 3 2 3 3
8 4 1 3 4 1 8 10 4 3 4 4 5 5 7 4 6 6 7 7 8 8 8 8 8 8 7 7 7 8 8 7 6 5 5 2 0 2 3 4 6 6 5 4
7 5 1 5 9 12 4 4 2 6 6 8 2 8 8 7 8 10 7 8 7 7 6 6 7 7 7 7 8 7 8 8 7 7 6 5 4 2 0 2 4 5 3 5
7 6 5 11 3 3 3 11 9 8 7 2 3 9 3 7 8 7 8 7 5 4 5 5 7 7 9 8 9 9 8 9 7 6 5 6 5 4 3 3 4 4 6 5
12 5 3 6 4 2 6 3 3 6 4 9 8 9 4 6 7 5 8 6 5 5 5 6 10 9 8 8 9 9 9 8 8 6 6 6 6 5 5 4 4 4 5 6
11 4 16 19 12 10 7 7 8 7 5 12 12 5 4 6 7 7 6 6 6 6 6 6 8 7 6 6 6 7 7 7 7 6 7 8 8 8 7 7 7 6 4 5
8 9 7 5 3 7 9 13 16 15 24 12 18 13 18 16 12 8 7 7 7 7 6 7 7 6 6 6 6 6 6 6 6 6 7 6 5 5 6 6 6 6 5 6
4 4 4 2 4 4 4 9 20 26 25 22 3 8 1 7 8 7 8 7 7 6 6 7 7 6 7 7 7 7 8 8 7 7 8 6 7 6 6 7 8 7 6 6
10 8 5 11 9 5 7 21 16 17 18 20 17 13 7 6 12 11 9 7 7 7 6 5 6 6 5 6 6 7 6 5 6 6 7 7 8 8 7 6 6 6 7 6
7 16 3 3 9 11 10 3 18 21 9 10 3 9 19 15 8 7 5 7 8 7 6 6 5 5 5 3 4 3 5 6 7 7 7 6 8 8 8 7 7 7 5 6
3 13 5 6 11 4 5 6 10 13 21 14 14 10 15 14 9 3 4 4 6 7 6 5 4 4 5 6 7 7 7 7 8 9 9 9 8 9 10 10 10 9 6 8
9 6 6 3 6 11 5 3 6 8 14 8 16 19 22 15 9 7 8 6 7 7 6 5 5 3 6 6 6 5 6 6 8 10 10 10 8 6 7 7 9 4 4 8
5 5 10 3 2 7 4 4 4 9 6 2 14 20 22 11 1 12 10 7 6 5 6 5 5 5 5 6 6 8 7 8 10 9 9 10 9 9 9 8 4 6 7 7
6 4 4 4 3 7 3 3 10 3 3 5 9 10 11 13 15 13 10 8 6 6 6 7 5 5 5 7 9 9 8 10 10 10 10 11 11 9 9 9 9 9 5 7
4 6 4 4 3 1 3 3 2 0 5 5 9 11 15 13 10 10 9 7 6 5 5 4 5 6 5 6 8 8 10 11 12 11 10 11 12 11 10 9 11 9 4 6
2 2 3 6 4 2 1 1 4 2 9 8 10 9 8 10 7 7 6 5 5 4 5 5 5 6 6 6 6 6 9 10 8 9 11 11 11 12 10 8 8 8 8 7
2 6 6 2 1 4 1 2 6 9 11 12 9 6 9 11 7 6 4 4 4 5 5 5 5 6 6 5 5 6 7 8 8 9 9 9 9 11 12 11 10 11 11 10
5 6 5 6 12 4 6 8 9 11 9 9 13 6 6 5 8 5 5 4 4 5 4 4 6 6 6 6 5 6 6 4 8 9 7 8 9 9 9 11 13 18 22 25
Wind_Direction
26 132 196 181 180 148 126 147 186 241 186 162 235 267 274 288 294 266 257 267 263 250 266 243 237 223 215 210 198 196 187 194 184 190 196 194 200 185 185 189 191 182 182 176
61 233 203 124 126 120 121 141 217 292 45 158 349 277 267 266 256 242 256 263 259 278 285 268 264 237 210 211 206 203 198 191 192 194 201 205 200 202 193 189 190 188 187 183
160 223 142 141 139 136 165 159 198 205 14 57 346 292 290 293 268 281 263 254 273 264 279 280 280 265 235 221 205 203 200 196 194 196 186 123 137 117 187 195 187 192 190 190
211 128 132 125 167 135 193 201 162 150 93 231 24 284 298 285 301 294 277 297 297 298 292 297 310 309 293 256 210 202 204 204 199 190 189 196 200 208 207 199 191 189 190 197
225 158 144 168 195 165 203 126 136 89 103 56 322 350 270 343 285 268 316 350 351 351 14 16 9 356 11 12 249 210 200 197 194 194 199 200 213 221 200 180 177 186 193 202
171 157 160 186 97 144 156 82 53 51 87 294 207 173 272 201 212 264 109 342 339 351 22 28 22 20 31 22 37 60 183 191 181 185 199 205 215 213 176 186 188 184 187 198
102 196 192 136 88 41 86 93 14 347 354 229 338 254 248 253 238 241 300 314 338 355 21 30 26 20 26 23 23 39 94 109 151 172 166 182 203 187 201 178 187 171 177 187
161 225 166 187 166 165 188 151 162 192 197 243 72 236 250 188 49 60 54 61 58 51 33 37 32 30 32 29 28 36 43 60 51 154 155 148 147 157 166 177 187 193 201 217
154 246 358 160 144 141 201 214 160 104 29 54 217 285 303 124 82 65 50 78 62 91 54 49 36 31 31 33 35 41 54 53 54 42 84 112 155 155 178 187 195 211 198 195
200 129 324 156 104 38 169 149 80 8 142 237 266 270 231 156 154 144 77 55 43 32 38 37 41 29 23 29 23 30 37 50 45 46 47 48 132 195 190 175 209 217 224 215
153 114 337 130 213 167 137 179 126 127 156 177 216 254 222 180 166 133 108 73 51 38 37 42 49 40 35 35 31 33 31 31 31 28 31 33 12 18 316 239 257 246 245 231
179 133 163 204 265 248 221 188 163 170 214 232 149 254 321 166 145 126 115 102 87 68 47 51 58 48 40 33 33 36 32 32 21 15 30 30 14 14 3 313 293 279 260 254
175 201 71 357 350 344 213 192 164 95 83 197 140 258 33 83 115 114 125 113 95 84 62 56 53 46 41 32 28 25 26 20 12 11 33 27 19 19 7 341 313 293 280 273
157 153 208 216 221 133 192 190 181 174 172 215 227 159 228 203 179 152 137 128 114 89 68 64 56 43 42 44 36 22 13 10 357 15 32 28 10 359 352 340 330 320 302 279
158 204 205 235 179 182 183 187 187 202 225 191 237 206 194 191 181 173 147 131 104 83 71 66 58 37 25 34 35 23 13 6 356 27 33 22 2 356 353 348 334 318 304 283
181 213 120 221 141 137 195 204 197 210 223 228 130 230 261 144 115 140 157 147 131 122 97 83 67 51 26 24 22 13 10 3 4 20 18 360 11 2 353 348 341 334 321 310
165 147 134 232 152 97 276 221 199 212 214 212 218 200 156 130 155 163 157 151 141 127 114 90 73 65 48 25 18 15 353 339 7 13 4 3 358 352 345 329 327 330 324 313
166 192 162 170 132 211 247 186 200 208 207 196 87 157 169 161 123 122 136 147 140 125 102 72 63 59 39 20 24 347 4 8 9 7 359 355 351 339 333 334 328 320 307 307
291 185 172 194 208 332 257 197 153 174 235 202 191 118 122 117 98 72 140 134 129 124 100 80 53 50 28 18 357 2 8 2 11 5 352 345 343 331 330 330 328 323 315 320
198 236 204 178 168 197 241 203 154 105 263 160 143 153 149 153 167 177 160 129 109 97 89 72 52 49 31 1 349 6 10 8 8 350 335 327 323 310 308 300 303 278 275 286
178 185 207 185 195 289 229 173 199 154 249 167 166 162 158 165 178 130 127 113 107 105 85 61 48 52 22 1 2 9 359 13 342 330 324 322 320 311 300 293 284 288 294 297
174 190 185 135 132 256 192 52 166 203 12 101 109 138 118 118 111 119 120 121 106 83 59 37 24 23 24 24 16 359 357 345 331 330 323 321 317 316 309 298 298 291 281 291
206 175 174 199 200 39 311 281 342 7 127 122 114 120 128 123 122 126 129 122 108 78 76 40 16 359 17 27 20 349 338 332 331 332 328 321 315 309 305 299 298 300 277 279
237 190 162 130 197 198 228 52 67 87 112 97 102 101 108 118 122 114 115 108 104 84 68 32 15 2 351 5 357 329 323 330 323 320 318 313 309 309 308 303 296 286 285 279
171 135 142 65 124 115 23 98 118 100 94 91 70 86 111 114 109 113 106 89 63 55 34 16 4 344 328 335 320 302 314 315 320 312 304 303 305 309 304 293 294 292 280 260
186 166 174 215 184 145 158 148 135 125 121 118 118 97 67 102 124 123 107 84 61 28 10 1 349 331 319 317 296 289 293 305 319 312 312 311 305 304 298 296 298 281 282 285